Change the Weather History Date:

Thursday, September 19, 2013

  Actual Average (KLJF) Record (KLJF)
Temperature  
Mean Temperature 66 °F -  
Max Temperature 73 °F 73 °F 92 °F (1984)
Min Temperature 59 °F 50 °F 33 °F (1971)
Cooling Degree Days 1    
Growing Degree Days 16 (Base 50)    
Moisture  
Dew Point 60 °F    
Average Humidity 77    
Maximum Humidity 94    
Minimum Humidity 47    
Precipitation  
Precipitation 0.56 in - - ()
Sea Level Pressure  
Sea Level Pressure 29.76 in    
Wind  
Wind Speed 8 mph (WNW)    
Max Wind Speed 22 mph    
Max Gust Speed 28 mph    
Visibility 10 miles    
Events Rain , Thunderstorm    
Averages and records for this station are not official NWS values.
T = Trace of Precipitation, MM = Missing Value Source: NWS Daily Summary

Daily Weather History Graph

Daily Weather History Graph

Search for Another Location

Airport or City:

Trip Planner

Search our weather history database for the weather conditions in past years. The results will help you decide how hot, cold, wet, or windy it might be!

Date:

Astronomy

Sep. 19, 2013 Rise Set
Actual Time 7:04 AM CDT 7:23 PM CDT
Civil Twilight 6:34 AM CDT 7:52 PM CDT
Nautical Twilight 6:00 AM CDT 8:27 PM CDT
Astronomical Twilight 5:24 AM CDT 9:02 PM CDT
Moon 7:18 PM CDT (9/19) 7:16 AM CDT (9/19)
Length of Visible Light 13h 17m
Length of Day
12h 18m
Full, 100% of the Moon is Illuminated
Sep 19
Full
Sep 26
Last Quarter
Oct 4
New
Oct 11
First Quarter
Oct 18
Full

Hourly Weather History & Observations

Time (CDT) Temp. Dew Point Humidity Pressure Visibility Wind Dir Wind Speed Gust Speed Precip Events Conditions
12:15 AM 71.6 °F 68.0 °F 88% 29.66 in 10.0 mi SSE 8.1 mph - N/A   Clear
12:35 AM 71.6 °F 66.2 °F 83% 29.66 in 10.0 mi SSE 6.9 mph - N/A   Clear
12:55 AM 73.4 °F 66.2 °F 78% 29.68 in 10.0 mi SSE 4.6 mph - N/A   Clear
1:15 AM 73.4 °F 66.2 °F 78% 29.70 in 10.0 mi SSE 3.5 mph - N/A   Clear
1:35 AM 71.6 °F 66.2 °F 83% 29.70 in 10.0 mi SSE 3.5 mph - N/A   Clear
1:55 AM 71.6 °F 66.2 °F 83% 29.70 in 10.0 mi SSE 3.5 mph - N/A   Scattered Clouds
2:15 AM 71.6 °F 66.2 °F 83% 29.70 in 10.0 mi Calm Calm - 0.01 in Rain Heavy Rain
2:35 AM 71.6 °F 66.2 °F 83% 29.68 in 10.0 mi SE 4.6 mph - 0.01 in   Clear
2:55 AM 71.6 °F 66.2 °F 83% 29.70 in 10.0 mi SSW 3.5 mph - 0.01 in   Mostly Cloudy
3:15 AM 71.6 °F 66.2 °F 83% 29.69 in 10.0 mi SSE 3.5 mph - N/A   Scattered Clouds
3:35 AM 69.8 °F 66.2 °F 88% 29.68 in 7.0 mi ESE 6.9 mph - N/A   Clear
3:55 AM 69.8 °F 66.2 °F 88% 29.66 in 10.0 mi East 8.1 mph - N/A   Clear
4:15 AM 69.8 °F 66.2 °F 88% 29.65 in 10.0 mi SE 5.8 mph - N/A   Clear
4:35 AM 69.8 °F 66.2 °F 88% 29.65 in 10.0 mi ESE 6.9 mph - N/A   Clear
4:55 AM 69.8 °F 66.2 °F 88% 29.65 in 10.0 mi ESE 6.9 mph - N/A   Clear
5:15 AM 69.8 °F 66.2 °F 88% 29.68 in 10.0 mi NW 12.7 mph - N/A   Clear
5:35 AM 69.8 °F 66.2 °F 88% 29.70 in 10.0 mi West 9.2 mph - N/A   Clear
5:55 AM 69.8 °F 66.2 °F 88% 29.69 in 7.0 mi North 5.8 mph - N/A   Mostly Cloudy
6:15 AM 69.8 °F 66.2 °F 88% 29.68 in 7.0 mi ENE 4.6 mph - N/A   Mostly Cloudy
6:35 AM 69.8 °F 66.2 °F 88% 29.68 in 7.0 mi Calm Calm - N/A   Mostly Cloudy
6:55 AM 69.8 °F 66.2 °F 88% 29.69 in 7.0 mi NNE 5.8 mph 11.5 mph N/A Thunderstorm Mostly Cloudy
7:15 AM 69.8 °F 64.4 °F 83% 29.69 in 7.0 mi Calm Calm - 0.01 in Rain , Thunderstorm Thunderstorms and Rain
7:35 AM 68.0 °F 60.8 °F 78% 29.63 in 10.0 mi East 9.2 mph - 0.07 in   Scattered Clouds
7:55 AM 68.0 °F 62.6 °F 83% 29.64 in 10.0 mi Calm Calm - 0.08 in Rain Light Rain
8:15 AM 66.2 °F 62.6 °F 88% 29.67 in 5.0 mi SSW 6.9 mph - 0.06 in Rain , Thunderstorm Heavy Thunderstorms and Rain
8:35 AM 66.2 °F 62.6 °F 88% 29.68 in 10.0 mi NNW 10.4 mph 20.7 mph 0.20 in Rain , Thunderstorm Light Thunderstorms and Rain
8:55 AM 66.2 °F 62.6 °F 88% 29.72 in 10.0 mi WNW 4.6 mph - 0.20 in Thunderstorm Thunderstorm
9:15 AM 68.0 °F 64.4 °F 88% 29.81 in 10.0 mi SW 20.7 mph 27.6 mph 0.07 in Rain , Thunderstorm Thunderstorms and Rain
9:35 AM 66.2 °F 64.4 °F 94% 29.79 in 10.0 mi WSW 17.3 mph 24.2 mph 0.18 in Rain , Thunderstorm Thunderstorms and Rain
9:56 AM 66.2 °F 64.4 °F 94% 29.78 in 10.0 mi West 9.2 mph - N/A Rain , Thunderstorm Light Thunderstorms and Rain
10:15 AM 66.2 °F 64.4 °F 94% 29.74 in 10.0 mi NNW 13.8 mph - 0.03 in Rain Heavy Rain
10:35 AM 66.2 °F 64.4 °F 94% 29.73 in 10.0 mi NNW 15.0 mph 19.6 mph 0.08 in Rain Rain
10:56 AM 66.2 °F 62.6 °F 88% 29.64 in 10.0 mi NNE 21.9 mph - 0.01 in Rain Rain
11:15 AM 66.2 °F 62.6 °F 88% 29.70 in 10.0 mi NNW 11.5 mph 19.6 mph 0.01 in Rain , Thunderstorm Light Thunderstorms and Rain
11:35 AM 66.2 °F 62.6 °F 88% 29.75 in 10.0 mi West 11.5 mph - 0.01 in   Clear
11:56 AM 66.2 °F 62.6 °F 88% 29.77 in 10.0 mi West 8.1 mph - N/A   Clear
12:15 PM 66.2 °F 62.6 °F 88% 29.77 in 10.0 mi West 9.2 mph - N/A   Scattered Clouds
12:35 PM 66.2 °F 62.6 °F 88% 29.78 in 10.0 mi WNW 9.2 mph 16.1 mph N/A   Mostly Cloudy
12:55 PM 66.2 °F 62.6 °F 88% 29.79 in 10.0 mi WNW 12.7 mph 20.7 mph N/A   Overcast
1:15 PM 68.0 °F 62.6 °F 83% 29.79 in 10.0 mi NW 12.7 mph - N/A   Overcast
1:35 PM 68.0 °F 62.6 °F 83% 29.80 in 10.0 mi WNW 11.5 mph - N/A   Overcast
1:56 PM 69.8 °F 62.6 °F 78% 29.79 in 10.0 mi WNW 8.1 mph - N/A   Overcast
2:15 PM 69.8 °F 62.6 °F 78% 29.79 in 10.0 mi WNW 12.7 mph 18.4 mph N/A   Overcast
2:35 PM 69.8 °F 62.6 °F 78% 29.79 in 10.0 mi WNW 12.7 mph 19.6 mph N/A   Overcast
2:55 PM 68.0 °F 62.6 °F 83% 29.80 in 10.0 mi WNW 10.4 mph - N/A   Overcast
3:15 PM 69.8 °F 62.6 °F 78% 29.80 in 10.0 mi NW 9.2 mph - N/A   Overcast
3:35 PM 69.8 °F 62.6 °F 78% 29.79 in 10.0 mi NW 13.8 mph - N/A   Overcast
3:55 PM 71.6 °F 62.6 °F 73% 29.78 in 10.0 mi WNW 9.2 mph - N/A   Overcast
4:15 PM 73.4 °F 60.8 °F 65% 29.78 in 10.0 mi WNW 12.7 mph 20.7 mph N/A   Scattered Clouds
4:35 PM 73.4 °F 55.4 °F 53% 29.78 in 10.0 mi NW 15.0 mph 21.9 mph N/A   Clear
4:55 PM 73.4 °F 57.2 °F 57% 29.80 in 10.0 mi West 13.8 mph 21.9 mph N/A   Clear
5:15 PM 73.4 °F 55.4 °F 53% 29.81 in 10.0 mi West 15.0 mph 18.4 mph N/A   Clear
5:35 PM 73.4 °F 55.4 °F 53% 29.80 in 10.0 mi WNW 11.5 mph 17.3 mph N/A   Clear
5:55 PM 73.4 °F 51.8 °F 47% 29.80 in 10.0 mi WNW 15.0 mph 19.6 mph N/A   Clear
6:15 PM 71.6 °F 51.8 °F 50% 29.81 in 10.0 mi West 9.2 mph - N/A   Clear
6:35 PM 71.6 °F 51.8 °F 50% 29.82 in 10.0 mi WNW 8.1 mph - N/A   Clear
6:54 PM 69.8 °F 51.8 °F 53% 29.83 in 10.0 mi WNW 6.9 mph - N/A   Clear
7:15 PM 69.8 °F 51.8 °F 53% 29.83 in 10.0 mi WNW 6.9 mph - N/A   Clear
7:35 PM 68.0 °F 51.8 °F 56% 29.82 in 10.0 mi WNW 6.9 mph - N/A   Clear
7:55 PM 66.2 °F 51.8 °F 60% 29.83 in 10.0 mi WNW 8.1 mph - N/A   Clear
8:15 PM 66.2 °F 50.0 °F 56% 29.83 in 10.0 mi WNW 10.4 mph - N/A   Clear
8:35 PM 66.2 °F 50.0 °F 56% 29.84 in 10.0 mi NW 11.5 mph 16.1 mph N/A   Clear
8:55 PM 64.4 °F 50.0 °F 59% 29.84 in 10.0 mi WNW 10.4 mph - N/A   Clear
9:14 PM 62.6 °F 50.0 °F 63% 29.85 in 10.0 mi WNW 10.4 mph 19.6 mph N/A   Clear
9:35 PM 62.6 °F 51.8 °F 68% 29.85 in 10.0 mi WNW 11.5 mph 16.1 mph N/A   Clear
9:55 PM 62.6 °F 50.0 °F 63% 29.86 in 10.0 mi NW 12.7 mph - N/A   Clear
10:16 PM 62.6 °F 50.0 °F 63% 29.86 in 10.0 mi NW 12.7 mph - N/A   Clear
10:35 PM 62.6 °F 51.8 °F 68% 29.87 in 10.0 mi WNW 12.7 mph - N/A   Clear
10:55 PM 60.8 °F 51.8 °F 72% 29.87 in 10.0 mi WNW 17.3 mph 21.9 mph N/A   Scattered Clouds
11:15 PM 60.8 °F 51.8 °F 72% 29.89 in 10.0 mi WNW 12.7 mph 18.4 mph N/A   Mostly Cloudy
11:35 PM 59.0 °F 51.8 °F 77% 29.89 in 10.0 mi West 12.7 mph - N/A   Scattered Clouds
11:55 PM 59.0 °F 50.0 °F 72% 29.89 in 10.0 mi WNW 13.8 mph - N/A   Scattered Clouds